Regional Weather Roundup
Issued by NWS

Home | Current Version | Previous Version | Text Only | Print | Product List | Glossary Off
Versions: 1 2 3 4 5 6 7 8 9 10 11 12 13 14 15 16 17 18 19 20 21 22 23 24 25 26 27 28 29 30 31 32 33 34 35 36 37 38 39 40 41 42 43 44 45 46 47 48 49 50

831
ASUS45 KSLC 201110
RWRUT

UTAH REGIONAL WEATHER ROUNDUP
NATIONAL WEATHER SERVICE SALT LAKE CITY UT
500 AM MDT FRI OCT 20 2017

UTZ001>011-023>025-201200-

NORTHERN UTAH

CITY           SKY/WX    TMP DP  RH WIND       PRES   REMARKS
BRIGHAM CITY   PTCLDY    48  35  62 NW6       29.64S
HILL AFB       PTCLDY    62  35  36 S20G26    29.65F
LOGAN          PTCLDY    37  29  72 CALM      29.62F
OGDEN          PTCLDY    64  35  34 S22G29    29.63F
SALT LAKE CITY PTCLDY    65  37  35 SE18      29.65F
TOOELE VALLEY  PTCLDY    64  32  29 S16       29.66S
WENDOVER       MOCLDY    43  23  45 NE10      29.59F
WEST JORDAN    CLEAR     55  37  49 S10       29.70R

$$

UTZ011>015-024>027-201200-

CENTRAL/NORTHEAST UTAH

CITY           SKY/WX    TMP DP  RH WIND       PRES   REMARKS
PROVO AIRPORT  CLEAR     51  40  65 NE3       29.73
MOAB/CANYONLAN CLEAR     59  36  42 S9        29.78S
DELTA          CLEAR     50  30  46 S14       29.74R
PRICE          CLEAR     49  26  41 E6        29.82F
RICHFIELD      CLEAR     43  32  65 CALM      29.80F
ROOSEVELT      CLEAR     37  30  75 W5        29.82S WCI  34
VERNAL         PTCLDY    41  27  57 W8        29.80F

$$

UTZ013>016-019>022-027-201200-

SOUTHERN UTAH

CITY           SKY/WX    TMP DP  RH WIND       PRES   REMARKS
BRYCE CANYON   CLEAR     29  24  82 W5        29.96F WCI  24
CEDAR CITY     CLEAR     59  30  33 S13G23    29.81R
MILFORD        CLEAR     49  27  42 SW15      29.76S
ST GEORGE      SUNNY     54  30  40 S7        29.74F
HANKSVILLE     CLEAR     48  32  53 N3        29.81S
KANAB          CLEAR     39  30  70 N5        29.90F
BLANDING         N/A     48  32  54 E6        30.00S

$$

REGIONAL REPORTS     COLORADO/ARIZONA

CITY           SKY/WX    TMP DP  RH WIND       PRES   REMARKS
CRAIG, CO      MOCLDY    33  29  85 SW3       29.87F
GRAND JUNCTION MOCLDY    59  34  39 SE13      29.81F
RIFLE, CO      CLOUDY    49  33  54 CALM      29.88F
MONTROSE, CO   PTCLDY    54  32  43 E6        29.92F
CORTEZ, CO     CLEAR     41  33  73 E3        29.96F
COLORADO CITY    N/A     41  30  65 CALM      29.89R
PAGE, AZ       CLEAR     62  36  37 S6        29.82F
GRAND CANYON   CLEAR     30  24  78 NE6       29.99F WCI  24
KINGMAN, AZ    CLEAR     57  32  38 S8        29.83R
FLAGSTAFF, AZ  CLEAR     34  28  79 W3        30.03F

$$

REGIONAL REPORTS    NEVADA/IDAHO/WYOMING

CITY           SKY/WX    TMP DP  RH WIND       PRES   REMARKS
LAS VEGAS, NV  PTCLDY    71  39  31 S16G26    29.69S
ELY, NY        CLEAR     50  21  32 S20G35    29.70F
ELKO, NV       CLEAR     32  18  56 CALM      29.61R
POCATELLO, ID  CLOUDY    63  31  30 S25G36    29.52F
BURLEY, ID     MOCLDY    55  21  26 S15       29.50F
FORT BRIDGER,    N/A     47  32  55 S10       29.80F
EVANSTON, WY   CLEAR     46  35  65 SW8       29.78F
ROCK SPRINGS,  CLEAR     50  25  37 S9        29.78F
KEMMERER, WY   CLOUDY    45  32  61 SW3       29.79F

$$




USA.gov is the U.S. government's official web portal to all federal, state and local government web resources and services.